| time (UTC) | temp C | wind direction | speed KPH | gust KPH | rain 1hr cm | rain 24hr cm | rain mn cm | humidity % | barometer mb |
| 20260510171457 | 15 | 178 | 3.2 | 11.3 | 0.00 | 0.79 | 0.08 | 82 | 1011.4 |
| 20260510165955 | 15 | 223 | 3.2 | 11.3 | 0.00 | 0.81 | 0.08 | 82 | 1011.3 |
| 20260510164456 | 15 | 201 | 3.2 | 11.3 | 0.00 | 0.84 | 0.08 | 80 | 1011.3 |
| 20260510162954 | 16 | 9 | 6.4 | 16.1 | 0.00 | 0.86 | 0.08 | 82 | 1011.0 |
| 20260510161451 | 15 | 243 | 4.8 | 14.5 | 0.00 | 0.89 | 0.08 | 84 | 1011.0 |
| 20260510155951 | 15 | 250 | 4.8 | 12.9 | 0.00 | 0.91 | 0.08 | 85 | 1011.2 |
| 20260510154451 | 14 | 213 | 3.2 | 9.7 | 0.00 | 0.94 | 0.08 | 85 | 1011.4 |
| 20260510152949 | 14 | 271 | 1.6 | 11.3 | 0.00 | 1.02 | 0.08 | 89 | 1011.2 |
| 20260510151449 | 13 | 270 | 4.8 | 12.9 | 0.00 | 1.07 | 0.08 | 90 | 1010.8 |
| 20260510145949 | 13 | 88 | 4.8 | 12.9 | 0.00 | 1.09 | 0.08 | 91 | 1010.9 |
| 20260510144449 | 13 | 150 | 3.2 | 12.9 | 0.00 | 1.14 | 0.08 | 93 | 1010.9 |
| 20260510142950 | 12 | 304 | 1.6 | 14.5 | 0.00 | 1.17 | 0.08 | 97 | 1011.0 |
| 20260510141448 | 11 | 108 | 3.2 | 14.5 | 0.00 | 1.22 | 0.08 | 98 | 1010.9 |
| 20260510135949 | 11 | 265 | 3.2 | 12.9 | 0.00 | 1.24 | 0.08 | 98 | 1010.8 |
| 20260510134445 | 11 | 258 | 3.2 | 12.9 | 0.00 | 1.27 | 0.08 | 98 | 1011.0 |
| 20260510132945 | 11 | 246 | 3.2 | 11.3 | 0.00 | 1.27 | 0.08 | 98 | 1011.2 |
| 20260510131445 | 10 | 284 | 3.2 | 11.3 | 0.00 | 1.27 | 0.08 | 98 | 1011.0 |
| 20260510130718 | 10 | 226 | 3.2 | 11.3 | 0.00 | 1.27 | 0.08 | 98 | 1010.8 |
| 20260510124444 | 10 | 229 | 3.2 | 11.3 | 0.00 | 1.27 | 0.08 | 98 | 1011.2 |
| 20260510122944 | 10 | 274 | 3.2 | 14.5 | 0.00 | 1.27 | 0.08 | 98 | 1010.9 |
| 20260510121445 | 10 | 225 | 3.2 | 9.7 | 0.00 | 1.27 | 0.08 | 98 | 1010.9 |
| 20260510115945 | 10 | 245 | 3.2 | 9.7 | 0.00 | 1.27 | 0.08 | 98 | 1011.0 |
| 20260510114445 | 9 | 118 | 3.2 | 6.4 | 0.00 | 1.27 | 0.08 | 98 | 1010.9 |
| 20260510112945 | 9 | 200 | 1.6 | 8.0 | 0.00 | 1.27 | 0.08 | 98 | 1010.6 |
| 20260510111444 | 9 | 209 | 1.6 | 12.9 | 0.00 | 1.27 | 0.08 | 98 | 1010.8 |
| 20260510105944 | 9 | 228 | 4.8 | 14.5 | 0.00 | 1.27 | 0.08 | 98 | 1010.5 |
| 20260510104445 | 9 | 229 | 1.6 | 6.4 | 0.00 | 1.27 | 0.08 | 98 | 1010.3 |
| 20260510102944 | 9 | 234 | 3.2 | 11.3 | 0.00 | 1.27 | 0.08 | 98 | 1009.9 |
| 20260510102216 | 9 | 239 | 1.6 | 11.3 | 0.00 | 1.27 | 0.08 | 98 | 1009.6 |
| 20260510095945 | 9 | 245 | 1.6 | 8.0 | 0.00 | 1.27 | 0.08 | 98 | 1009.2 |
| 20260510094444 | 9 | 177 | 1.6 | 4.8 | 0.00 | 1.27 | 0.08 | 98 | 1009.3 |
| 20260510093712 | 9 | 279 | 1.6 | 6.4 | 0.00 | 1.27 | 0.08 | 98 | 1009.3 |
| 20260510092212 | 9 | 236 | 1.6 | 6.4 | 0.00 | 1.27 | 0.08 | 98 | 1009.0 |
| 20260510085938 | 9 | 251 | 1.6 | 11.3 | 0.00 | 1.27 | 0.08 | 98 | 1008.9 |
| 20260510085210 | 9 | 251 | 0.0 | 3.2 | 0.00 | 1.27 | 0.08 | 98 | 1009.4 |
| 20260510082936 | 9 | 232 | 0.0 | 3.2 | 0.00 | 1.27 | 0.08 | 98 | 1009.6 |
| 20260510081436 | 9 | 203 | 0.0 | 3.2 | 0.00 | 1.27 | 0.08 | 98 | 1009.4 |
| 20260510075934 | 9 | 242 | 1.6 | 3.2 | 0.00 | 1.27 | 0.08 | 98 | 1009.6 |
| 20260510074433 | 9 | 231 | 1.6 | 16.1 | 0.00 | 1.27 | 0.08 | 98 | 1009.6 |
| 20260510072931 | 9 | 123 | 1.6 | 8.0 | 0.00 | 1.27 | 0.08 | 98 | 1009.5 |
| 20260510071432 | 9 | 251 | 3.2 | 8.0 | 0.00 | 1.27 | 0.08 | 98 | 1009.5 |
| 20260510065930 | 9 | 207 | 3.2 | 8.0 | 0.00 | 1.27 | 0.08 | 98 | 1009.4 |
| 20260510064430 | 9 | 244 | 0.0 | 4.8 | 0.00 | 1.27 | 0.08 | 98 | 1009.6 |
| 20260510062933 | 8 | 228 | 0.0 | 4.8 | 0.00 | 1.27 | 0.08 | 98 | 1009.5 |
| 20260510062928 | 9 | 248 | 0.0 | 4.8 | 0.00 | 1.27 | 0.08 | 98 | 1009.6 |
| 20260510055924 | 8 | 263 | 0.0 | 3.2 | 0.03 | 1.27 | 0.08 | 98 | 1009.6 |
| 20260510054425 | 8 | 170 | 0.0 | 4.8 | 0.05 | 1.27 | 0.08 | 98 | 1009.6 |
| 20260510052922 | 8 | 182 | 0.0 | 0.0 | 0.05 | 1.27 | 0.08 | 98 | 1009.7 |
| 20260510051424 | 8 | 199 | 0.0 | 3.2 | 0.05 | 1.24 | 0.05 | 98 | 1009.7 |
| 20260510051420 | 8 | 168 | 0.0 | 3.2 | 0.05 | 1.27 | 0.08 | 98 | 1009.7 |
| 20260510044417 | 8 | 201 | 1.6 | 4.8 | 0.03 | 1.22 | 0.03 | 98 | 1009.9 |
| 20260510042915 | 8 | 256 | 0.0 | 3.2 | 0.03 | 1.22 | 0.03 | 98 | 1009.8 |
| 20260510041415 | 8 | 233 | 0.0 | 3.2 | 0.03 | 1.22 | 0.03 | 98 | 1009.9 |
| 20260510035913 | 8 | 266 | 0.0 | 1.6 | 0.00 | 1.19 | 1.19 | 98 | 1010.0 |
| 20260510034411 | 8 | 239 | 0.0 | 0.0 | 0.00 | 1.19 | 1.19 | 98 | 1009.9 |
| 20260510032908 | 8 | 213 | 0.0 | 3.2 | 0.00 | 1.19 | 1.19 | 98 | 1009.8 |
| 20260510032139 | 8 | 250 | 0.0 | 3.2 | 0.00 | 1.19 | 1.19 | 98 | 1009.9 |
| 20260510030639 | 8 | 274 | 1.6 | 8.0 | 0.00 | 1.19 | 1.19 | 98 | 1009.9 |
| 20260510024409 | 8 | 234 | 1.6 | 6.4 | 0.00 | 1.19 | 1.19 | 98 | 1010.1 |
| 20260510022907 | 8 | 298 | 1.6 | 4.8 | 0.00 | 1.19 | 1.19 | 98 | 1010.4 |
| 20260510021405 | 8 | 311 | 1.6 | 6.4 | 0.00 | 1.19 | 1.19 | 98 | 1010.4 |
| 20260510015902 | 8 | 232 | 0.0 | 4.8 | 0.00 | 1.19 | 1.19 | 98 | 1010.3 |
| 20260510014402 | 8 | 300 | 1.6 | 4.8 | 0.00 | 1.19 | 1.19 | 98 | 1010.4 |
| 20260510012902 | 8 | 60 | 0.0 | 4.8 | 0.00 | 1.19 | 1.19 | 98 | 1010.2 |
| 20260510011402 | 8 | 223 | 1.6 | 8.0 | 0.00 | 1.19 | 1.19 | 98 | 1010.3 |
| 20260510005901 | 8 | 269 | 1.6 | 8.0 | 0.00 | 1.19 | 1.19 | 97 | 1010.3 |
| 20260510004359 | 8 | 282 | 0.0 | 4.8 | 0.00 | 1.19 | 1.19 | 97 | 1010.2 |
| 20260510003630 | 8 | 292 | 0.0 | 3.2 | 0.00 | 1.19 | 1.19 | 97 | 1010.2 |
| 20260510001358 | 8 | 282 | 1.6 | 8.0 | 0.00 | 1.19 | 1.19 | 97 | 1010.0 |
| 20260510000630 | 8 | 269 | 1.6 | 8.0 | 0.00 | 1.19 | 1.19 | 97 | 1009.7 |
| 20260509234358 | 8 | 254 | 0.0 | 6.4 | 0.00 | 1.19 | 1.19 | 97 | 1009.6 |
| 20260509232857 | 8 | 259 | 1.6 | 6.4 | 0.00 | 1.19 | 1.19 | 97 | 1009.6 |
| 20260509231357 | 8 | 186 | 1.6 | 6.4 | 0.00 | 1.19 | 1.19 | 97 | 1009.6 |
| 20260509225854 | 8 | 246 | 1.6 | 6.4 | 0.00 | 1.19 | 1.19 | 97 | 1009.6 |
| 20260509225123 | 8 | 101 | 0.0 | 4.8 | 0.00 | 1.19 | 1.19 | 97 | 1009.7 |
| 20260509222852 | 8 | 214 | 0.0 | 3.2 | 0.00 | 1.19 | 1.19 | 97 | 1009.7 |
| 20260509221350 | 8 | 155 | 0.0 | 3.2 | 0.00 | 1.19 | 1.19 | 97 | 1009.8 |
| 20260509220620 | 8 | 153 | 0.0 | 3.2 | 0.03 | 1.19 | 1.19 | 97 | 1009.8 |
| 20260509220007 | 8 | 165 | 0.0 | 3.2 | 0.03 | 1.19 | 1.19 | 97 | 1009.9 |
| 20260509212845 | 8 | 149 | 0.0 | 4.8 | 0.08 | 1.19 | 1.19 | 97 | 1010.1 |
| 20260509211347 | 8 | 123 | 0.0 | 4.8 | 0.10 | 1.19 | 1.19 | 97 | 1010.2 |
| 20260509205841 | 8 | 247 | 0.0 | 4.8 | 0.10 | 1.17 | 1.17 | 97 | 1010.3 |
| 20260509205112 | 8 | 242 | 1.6 | 6.4 | 0.13 | 1.17 | 1.17 | 97 | 1010.3 |
| 20260509203613 | 8 | 198 | 1.6 | 6.4 | 0.18 | 1.09 | 1.09 | 97 | 1010.2 |
| 20260509202947 | 8 | 234 | 1.6 | 8.0 | 0.15 | 1.12 | 1.12 | 97 | 1010.2 |
| 20260509200608 | 8 | 227 | 0.0 | 3.2 | 0.23 | 1.07 | 1.07 | 97 | 1010.4 |
| 20260509194339 | 8 | 144 | 1.6 | 3.2 | 0.25 | 1.02 | 1.04 | 97 | 1010.7 |
| 20260509192839 | 7 | 217 | 0.0 | 9.7 | 0.23 | 0.97 | 0.99 | 97 | 1010.7 |
| 20260509191344 | 7 | 219 | 0.0 | 8.0 | 0.20 | 0.84 | 0.86 | 97 | 1010.9 |
| 20260509191339 | 7 | 293 | 1.6 | 6.4 | 0.23 | 0.91 | 0.91 | 97 | 1010.8 |
| 20260509184338 | 8 | 226 | 1.6 | 6.4 | 0.18 | 0.76 | 0.79 | 97 | 1011.2 |
| 20260509182837 | 8 | 213 | 1.6 | 9.7 | 0.20 | 0.74 | 0.74 | 97 | 1011.2 |
| 20260509181339 | 8 | 86 | 1.6 | 9.7 | 0.20 | 0.69 | 0.69 | 97 | 1011.4 |
| 20260509175837 | 7 | 225 | 1.6 | 8.0 | 0.18 | 0.64 | 0.64 | 96 | 1011.5 |
| 20260509174336 | 7 | 144 | 0.0 | 4.8 | 0.15 | 0.58 | 0.58 | 97 | 1011.5 |
| 20260509172836 | 7 | 256 | 0.0 | 4.8 | 0.13 | 0.53 | 0.53 | 96 | 1011.7 |